Quincy, IL

10:46 PM CST on November 17, 2019 (GMT -0600)
Quincy Regional-Baldwin

Weather History for KUIN - August, 2019

Change the Weather History Date:

Friday, August 2, 2019

  Actual Average Record
Temperature  
Mean Temperature 72 °F 76 °F  
Max Temperature 85 °F 85 °F 105 °F (1947)
Min Temperature 59 °F 66 °F 52 °F (1907)
Degree Days  
Heating Degree Days 0 0  
Month to date heating degree days 0 0  
Since 1 June heating degree days 5 16  
Since 1 July heating degree days 0 0  
Cooling Degree Days 7 11  
Month to date cooling degree days 13 22  
Year to date cooling degree days 793 678  
Since 1 June cooling degree days 683 592  
Growing Degree Days 22 (Base 50)    
Moisture  
Dew Point 59 °F    
Average Humidity 64    
Maximum Humidity 84    
Minimum Humidity 43    
Precipitation  
Precipitation 0.00 in 0.12 in 1.54 in (1995)
Month to date precipitation 0.00 0.24  
Year to date precipitation 24.96 22.36  
Sea Level Pressure  
Sea Level Pressure 30.09 in    
Wind  
Wind Speed 7 mph (ENE)    
Max Wind Speed 15 mph    
Max Gust Speed 21 mph    
Visibility 10 miles    
Events      
T = Trace of Precipitation, MM = Missing Value Source: NWS Daily Summary

Daily Weather History Graph

Daily Weather History Graph

Search for Another Location

Airport or City:

Astronomy

Aug. 02, 2019 Rise Set
Actual Time 6:04 AM CDT 8:17 PM CDT
Civil Twilight 5:33 AM CDT 8:47 PM CDT
Nautical Twilight 4:56 AM CDT 9:24 PM CDT
Astronomical Twilight 4:15 AM CDT 10:05 PM CDT
Moon 7:43 AM CDT (8/2) 9:46 PM CDT (8/2)
Length of Visible Light 15h 13m
Length of Day
14h 13m
Waxing Crescent, 4% of the Moon is Illuminated
Aug 2
Waxing Crescent
Aug 7
First Quarter
Aug 15
Full
Aug 23
Last Quarter
Aug 30
New

Hourly Weather History & Observations

Time (CDT) Temp. Heat Index Dew Point Humidity Pressure Visibility Wind Dir Wind Speed Gust Speed Precip Events Conditions
12:54 AM 64.9 °F - 55.9 °F 73% 30.15 in 10.0 mi NE 4.6 mph - N/A   Clear
1:54 AM 64.0 °F - 55.0 °F 73% 30.13 in 10.0 mi ENE 6.9 mph - N/A   Clear
2:54 AM 62.1 °F - 54.0 °F 75% 30.13 in 10.0 mi NE 4.6 mph - N/A   Clear
3:54 AM 61.0 °F - 54.0 °F 78% 30.11 in 10.0 mi NE 5.8 mph - N/A   Clear
4:54 AM 63.0 °F - 54.0 °F 72% 30.10 in 10.0 mi ENE 5.8 mph - N/A   Clear
5:54 AM 61.0 °F - 53.1 °F 75% 30.10 in 10.0 mi ENE 5.8 mph - N/A   Clear
6:54 AM 61.0 °F - 55.0 °F 81% 30.12 in 10.0 mi NE 5.8 mph - N/A   Clear
7:54 AM 66.9 °F - 57.0 °F 70% 30.14 in 10.0 mi East 5.8 mph - N/A   Mostly Cloudy
8:54 AM 71.1 °F - 57.9 °F 63% 30.14 in 10.0 mi East 6.9 mph - N/A   Scattered Clouds
10:54 AM 78.1 °F - 61.0 °F 56% 30.13 in 10.0 mi ESE 8.1 mph - N/A   Clear
11:54 AM 80.1 °F 80.9 °F 60.1 °F 50% 30.11 in 10.0 mi ESE 9.2 mph - N/A   Partly Cloudy
12:54 PM 80.1 °F 80.7 °F 59.0 °F 48% 30.10 in 10.0 mi East 9.2 mph 18.4 mph N/A   Mostly Cloudy
1:54 PM 82.9 °F 82.8 °F 59.0 °F 44% 30.08 in 10.0 mi East 13.8 mph 19.6 mph N/A   Partly Cloudy
2:54 PM 82.9 °F 82.4 °F 57.0 °F 41% 30.07 in 10.0 mi East 10.4 mph - N/A   Clear
3:54 PM 82.9 °F 82.8 °F 59.0 °F 44% 30.06 in 10.0 mi East 10.4 mph 21.9 mph N/A   Partly Cloudy
4:54 PM 84.0 °F 84.0 °F 60.1 °F 44% 30.05 in 10.0 mi ESE 9.2 mph - N/A   Partly Cloudy
5:54 PM 82.0 °F 82.7 °F 61.0 °F 49% 30.04 in 10.0 mi East 10.4 mph - N/A   Clear
6:54 PM 82.0 °F 82.7 °F 61.0 °F 49% 30.02 in 10.0 mi East 4.6 mph - N/A   Partly Cloudy
7:54 PM 80.1 °F 81.2 °F 62.1 °F 54% 30.03 in 10.0 mi East 3.5 mph - N/A   Clear
8:54 PM 75.9 °F - 64.0 °F 67% 30.04 in 10.0 mi NNE 3.5 mph - N/A   Clear
9:54 PM 73.0 °F - 64.0 °F 73% 30.06 in 10.0 mi NE 4.6 mph - N/A   Scattered Clouds
10:54 PM 73.0 °F - 64.0 °F 73% 30.06 in 10.0 mi ENE 4.6 mph - N/A   Clear
11:54 PM 72.0 °F - 64.0 °F 76% 30.07 in 10.0 mi ENE 5.8 mph - N/A   Clear